Hourly Weather Roundup
Issued by NWS Central Illinois

Home | Current Version | Previous Version | Text Only | Print | Product List | Glossary On
Versions: 1 2 3 4 5 6 7 8 9 10 11 12 13 14 15 16 17 18 19 20 21 22 23 24 25 26 27 28 29 30 31 32 33 34 35 36 37 38 39 40 41 42 43 44 45 46 47 48 49 50
000
NZUS43 KILX 220510
HWRILX

AREA WEATHER ROUNDUP
NATIONAL WEATHER SERVICE, LINCOLN IL
1200 AM CDT WED OCT 22 2014


CITY           SKY/WX    TMP DP  RH WIND       PRES   REMARKS
BLOOMINGTON    CLEAR     39  37  92 NE5       30.25F
CHAMPAIGN      CLOUDY    49  40  71 NE9       30.23F
DECATUR        CLEAR     40  37  89 N5        30.24S
FLORA          NOT AVBL
GALESBURG      CLEAR     42  38  86 E8        30.24S
JACKSONVILLE   CLEAR     41  38  90 E6        30.23S
LACON          CLEAR     38  34  87 CALM      30.25F
LAWRENCEVILLE  CLEAR     48  43  82 N13       30.21S
LITCHFIELD     CLEAR     45  39  81 E8        30.22S
$$


CITY           SKY/WX    TMP DP  RH WIND       PRES   REMARKS
LINCOLN        CLEAR     40  38  93 CALM      30.24S
MACOMB         CLEAR     39  37  92 E6        30.26R
MATTOON        CLEAR     42  39  89 NE5       30.22F
MT CARMEL AP   CLEAR     50  45  81 N7        30.21S
OLNEY-NOBLE AP CLEAR     46  43  87 N5        30.22F
PARIS          CLEAR     44  40  87 CALM      30.24S
PEORIA         CLEAR     45  37  73 NE7       30.25F
PONTIAC        MOCLDY    40  36  86 NE5       30.26S
RANTOUL        CLOUDY    50  39  64 NE7       30.25S
ROBINSON       CLEAR     47  44  89 N6        30.23S
SPRINGFIELD    CLEAR     44  39  82 E5        30.24S
TAYLORVILLE    CLEAR     43  37  81 E6        30.23F
$$

...REGIONAL REPORTS...


CITY           SKY/WX    TMP DP  RH WIND       PRES   REMARKS
CHICAGO O`HARE MOCLDY    49  37  63 E8        30.25S
KANKAKEE       CLEAR     44  39  83 NE3       30.26S
MOLINE         CLEAR     38  35  89 E6        30.26S WCI  33
MOUNT VERNON   CLEAR     46  37  71 NE6       30.21S
PITTSFIELD     CLEAR     46  40  78 E5        30.23F
QUINCY         CLEAR     47  39  74 E9        30.21S
ROCKFORD       CLEAR     38  34  85 CALM      30.29S
$$


CITY           SKY/WX    TMP DP  RH WIND       PRES   REMARKS
BURLINGTON     CLEAR     45  39  79 E8        30.23R
CEDAR RAPIDS   CLEAR     42  38  85 E9        30.22F
DES MOINES     CLEAR     52  40  63 SE10      30.17S
KIRKSVILLE     CLEAR     47  41  80 E8        30.20R
OTTUMWA        NOT AVBL
ST LOUIS       CLEAR     51  40  65 E9        30.21R
$$


CITY           SKY/WX    TMP DP  RH WIND       PRES   REMARKS
TERRE HAUTE    CLEAR     44  39  82 N6        30.23R
EVANSVILLE     CLEAR     48  41  76 N6        30.20R
INDIANAPOLIS   PTCLDY    47  37  68 NE12      30.20S
LAFAYETTE      CLEAR     42  37  82 NE6       30.24S
MADISON        CLEAR     32  31  96 CALM      30.29S FOG
MILWAUKEE      PTCLDY    44  37  76 NE5       30.27S
$$





USA.gov is the U.S. government's official web portal to all federal, state and local government web resources and services.